Hourly Data Report for January 20, 2013

BAGOTVILLE A
QUEBEC

48°20'00.000" N
71°00'00.000" W
159.10 m
7060400
71727
YBG

Download Data

Hourly Data (January 2013)
Hourly Data Report for January 20, 2013
TIME
LST
Temp Definition
°C
Dew Point Definition
°C
Rel Hum Definition
%
Precip. Amount Definition
mm

Wind Dir Definition
10's deg

Wind Spd Definition
km/h
Visibility Definition
km
Stn Press Definition
kPa
Hmdx Definition


Wind Chill Definition


Weather Definition


00:00 -12.6 -16.0 76   11 37 9.7 99.16   -24 Snow,Blowing Snow
01:00 -12.9 -14.9 85   11 33 3.2 99.02   -24 Snow,Blowing Snow
02:00 -12.7 -15.2 82   11 39 3.2 98.88   -24 Snow,Blowing Snow
03:00 -12.5 -14.9 82   11 30 3.2 98.68   -23 Snow,Blowing Snow
04:00 -12.4 -14.3 86   11 32 1.6 98.45   -23 Snow,Blowing Snow
05:00 -12.0 -13.9 86   12 39 1.6 98.15   -23 Snow,Blowing Snow
06:00 -11.3 -13.5 84   11 41 1.6 97.94   -23 Blowing Snow
07:00 -10.6 -12.7 85   11 37 4.8 97.69   -21 Blowing Snow
08:00 -10.0 -11.6 88   11 39 1.2 97.45   -21 Snow,Blowing Snow
09:00 -9.5 -11.1 88   11 33 3.2 97.24   -19 Snow,Blowing Snow
10:00 -8.6 -10.8 84   11 33 3.2 97.01   -18 Snow,Blowing Snow
11:00 -7.6 -10.7 78   11 35 12.9 96.80   -17 Snow
12:00 -6.4 -9.6 78   10 39 24.1 96.68   -16 Snow
13:00 -6.3 -9.1 80   10 28 16.1 96.71   -14 Snow
14:00 -5.1 -7.0 86   10 6 11.3 96.79   -8 Snow
15:00 -5.6 -7.6 86   11 6 16.1 96.92   -8 Snow
16:00 -8.4 -9.8 90   31 43 0.4 97.23   -19 Snow,Blowing Snow
17:00 -11.2 -17.4 60   31 48 1.2 97.57   -23 Snow,Blowing Snow
18:00 -14.4 -19.5 65   28 46 4.8 97.89   -27 Snow,Blowing Snow
19:00 -16.4 -20.8 69   27 48 1.6 98.08   -30 Snow,Blowing Snow
20:00 -18.4 -21.2 79   28 48 1.6 98.28   -33 Snow,Blowing Snow
21:00 -18.0 -22.1 70   28 26 8.0 98.33   -29 Snow
22:00 -18.0 -21.4 75   28 30 4.8 98.39   -30 Snow
23:00 -18.4 -21.2 79   27 30 4.8 98.48   -30 Snow,Blowing Snow

Notes on Data Quality.

Legend

  • E = Estimated
  • M = Missing
  • NA = Not Available*
  • [empty] = Indicates an unobserved value
Date modified: